Location: Plainartige
(45.6866°N, 1.7993°E)
Time: 02:42:58
(UTC+00:00)

POLYITAN 1 - Pass Details

Date: 04 July 2022
Orbit: 586 x 605 km, 98.0° (Epoch: 13 August)

Event Time Altitude Azimuth Distance (km) Brightness Sun altitude
Rises 03:23:34 0° 352° (N) 2,862 ? -7.0°
Reaches altitude 10° 03:27:36 10° 314° (NW) 1,957 ? -6.5°
Maximum altitude 03:28:27 11° 302° (WNW) 1,920 ? -6.4°
Drops below altitude 10° 03:29:18 10° 290° (WNW) 1,956 ? -6.3°
Enters shadow 03:32:14 - 259° (W) 2,525 ? -5.9°
